Regional Weather Roundup
Issued by NWS

Home | Current Version | Previous Version | Graphics & Text | Print | Product List | Glossary On
Versions: 1 2 3 4 5 6 7 8 9 10 11 12 13 14 15 16 17 18 19 20 21 22 23 24 25 26 27 28 29 30 31 32 33 34 35 36 37 38 39 40 41 42 43 44 45 46 47 48 49 50
000
ASUS43 KMKX 020300
RWRWI

WISCONSIN REGIONAL WEATHER ROUNDUP
NATIONAL WEATHER SERVICE MILWAUKEE/SULLIVAN WI
1000 PM CDT MON SEP 01 2014

NOTE: "FAIR" INDICATES FEW OR NO CLOUDS BELOW 12,000 FEET WITH NO
SIGNIFICANT WEATHER AND/OR OBSTRUCTIONS TO VISIBILITY.

WIZ001-002-006>008-014>016-023>028-020400-
NORTHWEST WISCONSIN

CITY           SKY/WX    TMP DP  RH WIND       PRES   REMARKS
SUPERIOR ARPT  PTCLDY    55  53  91 SW3       29.75R
ASHLAND        CLEAR     56  53  90 SW7       29.76R
HAYWARD        PTCLDY    56  54  93 CALM      29.79R
SIREN          PTCLDY    59  56  90 CALM      29.79R
RICE LAKE      CLEAR     58  56  93 CALM      29.81S
LADYSMITH      CLEAR     59  55  85 CALM      29.81R
EAU CLAIRE     NOT AVBL
MENOMONIE      CLEAR     65  57  75 SW3       29.80S
NEW RICHMOND   CLEAR     61  58  91 CALM      29.81R
OSCEOLA        PTCLDY    60  60 100 CALM      29.82S
$$

WIZ003>005-009-010-017-018-020400-
NORTH CENTRAL WISCONSIN

CITY           SKY/WX    TMP DP  RH WIND       PRES   REMARKS
WOODRUFF       CLEAR     60  55  85 CALM      29.79R
RHINELANDER    CLEAR     57  55  93 W5        29.80R
EAGLE RIVER    PTCLDY    57  57 100 CALM      29.77R
LAND O LAKES   CLEAR     55  55  99 CALM      29.77S
PHILLIPS       PTCLDY    60  55  83 W3        29.79R
TOMAHAWK       CLEAR     57  53  86 CALM      29.80R
MEDFORD        CLEAR     60  56  88 SW3       29.81R
MERRILL        CLEAR     58  56  91 W3        29.80R
$$

WIZ029-030-035-036-043>047-020400-
CENTRAL WISCONSIN

CITY           SKY/WX    TMP DP  RH WIND       PRES   REMARKS
WAUSAU         CLEAR     63  56  78 NW6       29.79R
MOSINEE        NOT AVBL
MARSHFIELD     PTCLDY    62  57  83 W6        29.80S
STEVENS POINT  PTCLDY    64  57  80 CALM      29.80R
WAUPACA        PTCLDY    67  60  80 W6        29.79R
WAUTOMA        NOT AVBL
WISC RAPIDS    PTCLDY    63  59  87 W3        29.81R
CAMP DOUGLAS   PTCLDY    59  59 100 CALM      29.81R FOG
$$

WIZ011>013-019>022-031-037>040-048>050-020400-
NORTHEAST WISCONSIN

CITY           SKY/WX    TMP DP  RH WIND       PRES   REMARKS
ANTIGO         CLEAR     60  56  85 W7        29.80R
STURGEON BAY   CLEAR     66  63  88 W5        29.76S
GREEN BAY      CLEAR     63  60  90 SW5       29.77R
MANITOWOC      NOT AVBL
APPLETON       CLEAR     64  61  88 CALM      29.79R
CLINTONVILLE   CLEAR     63  55  77 W5        29.77S
OSHKOSH        CLEAR     66  63  90 SW3       29.79R
$$

WIZ032>034-041-042-053>061-020400-
SOUTHWEST WISCONSIN

CITY           SKY/WX    TMP DP  RH WIND       PRES   REMARKS
LA CROSSE      PTCLDY    69  59  70 NW3       29.81R
SPARTA         PTCLDY    60  59  96 CALM      29.82S
VIROQUA        FAIR      65  58  80 W5        29.83S
BOSCOBEL       PTCLDY    65  62  90 SW3       29.83R
PRAIRIE DU CHI PTCLDY    64  61  90 CALM      29.83R
PLATTEVILLE    FAIR      67  64  88 CALM      29.86R
$$

WIZ056-057-062-063-064-067-068-020400-
SOUTH CENTRAL WISCONSIN

CITY           SKY/WX    TMP DP  RH WIND       PRES   REMARKS
BARABOO/DELLS  CLEAR     63  60  90 CALM      29.81R
LONE ROCK      NOT AVBL
WATERTOWN      CLEAR     64  64 100 CALM      29.81S
MADISON        PTCLDY    66  60  81 CALM      29.82R
MIDDLETON      FAIR      62  60  93 CALM      29.83R
MONROE         PTCLDY    68  63  83 W7        29.83S
JANESVILLE     CLEAR     68  64  88 CALM      29.83R
$$

WIZ051-052-058>065-066-070>072-020400-
SOUTHEAST WISCONSIN

CITY           SKY/WX    TMP DP  RH WIND       PRES   REMARKS
MILWAUKEE      PTCLDY    70  65  84 SW5       29.81R
WAUKESHA       CLEAR     64  59  82 W6        29.83R
MILWAUKEE/TIMM CLEAR     68  59  73 W3        29.82R
RACINE         CLEAR     69  66  90 W6        29.83R
BURLINGTON     CLEAR     63  62  97 SW3       29.83R
KENOSHA        CLEAR     68  65  90 W7        29.82R
FOND DU LAC    CLEAR     64  61  90 SW6       29.81R
SHEBOYGAN      CLEAR     63  60  90 SW6       29.79R
WEST BEND      CLEAR     64  59  82 W5        29.81R
JUNEAU         CLEAR     64  62  95 CALM      29.82S
$$

LSZ147-162-020400-
LAKE SUPERIOR

STATION/POSITION TIME  TEMP    WIND        PRES    WAVE
                       AIR SEA DIR/SP/G            HT/PER
                 (UTC) (F)     (DEG/KT/KT) (MB)    (FT/S)
W MID LAKE BUOY  0150   60 57  260/  8/  8 1004.7R   2/ 5
DEVILS ISLAND    0200   65     260/ 15/ 17 1005.7R
PORT WING        0200   63     190/  7/  8 1007.1R
SAXON HARBOR     0200   61     200/  5/  7 1007.1R
$$

LMZ867-665-643>646-020400-
LAKE MICHIGAN

STATION/POSITION TIME  TEMP    WIND        PRES    WAVE
                       AIR SEA DIR/SP/G            HT/PER
                 (UTC) (F)     (DEG/KT/KT) (MB)    (FT/S)
N MID LAKE BUOY  0150   66 65  250/  6/  8 1006.2R   2/ 5
NORTHPORT PIER   0200   67     310/  3/  3 1006.4R
KEWAUNEE LAKESHO 0200   70     260/  4/  7 1006.7R
SHEBOYGAN LAKESH 0200   69 55  260/  7/  9 1008.3R
ATWATER BUOY     0200   66     260/  8/  8 1010.1R
MILWAUKEE LAKESH 0200   73     290/  6/  8   N/A
S MID LAKE BUOY  0150   71 70  280/ 12/ 14 1008.8R   2/ 4
KENOSHA   LAKESH 0200   73     260/  5/  7 1008.8R
$$

TC  - TEMPERATURE IN CELSIUS
VSB - VISIBILITY IN STATUTE MILES
WCI - WIND CHILL INDEX
HX  - HEAT INDEX




USA.gov is the U.S. government's official web portal to all federal, state and local government web resources and services.